Location: Aufkirchen
(47.9603°N, 11.3653°E)
Time: 00:15:09
(UTC+01:00)

A-11 Canister half - Visible Passes

Search period start: 26 November 2020 00:00
Search period end: 06 December 2020 00:00
Orbit: 1525 x 1683 km, 47.3° (Epoch: 25 November)

Date Brightness Start Highest point End Pass type
(mag) Time Alt. Az. Time Alt. Az. Time Alt. Az.
26 Nov 11.1 04:54:04 10° S 05:01:02 21° SE 05:07:55 10° E visible
26 Nov 9.9 06:54:48 10° SW 07:04:33 56° SSE 07:14:06 10° ENE visible
27 Nov 11.1 04:32:45 10° S 04:39:27 20° SE 04:46:05 10° E visible
27 Nov 9.9 06:33:12 10° SW 06:42:55 54° SSE 06:52:26 10° ENE visible
28 Nov 11.1 04:11:28 10° SSE 04:17:53 19° SE 04:24:14 10° E visible
28 Nov 9.9 06:11:37 10° SW 06:21:16 52° SSE 06:30:46 10° ENE visible
29 Nov 11.1 03:50:13 10° SSE 03:56:18 18° SE 04:02:21 10° E visible
29 Nov 9.9 05:50:01 10° SW 05:59:38 50° SE 06:09:06 10° ENE visible
30 Nov 11.1 03:29:01 10° SSE 03:34:44 17° SE 03:40:26 10° E visible
30 Nov 9.9 05:28:27 10° SW 05:38:00 49° SE 05:47:25 10° ENE visible
01 Dec 11.1 03:07:51 10° SSE 03:13:10 16° SE 03:18:28 10° E visible
01 Dec 9.9 05:06:52 10° SSW 05:16:22 47° SE 05:25:44 10° ENE visible
02 Dec 11.1 02:47:57 12° SSE 02:51:37 15° ESE 02:56:28 10° E visible
02 Dec 9.9 04:46:20 14° SSW 04:54:44 45° SE 05:04:03 10° ENE visible
02 Dec 9.3 06:49:05 10° WSW 06:59:15 80° SSE 07:09:11 10° E visible
03 Dec 11.0 02:28:30 13° SE 02:30:03 14° ESE 02:34:23 10° E visible
03 Dec 9.9 04:26:52 22° SSW 04:33:06 44° SE 04:42:22 10° ENE visible
03 Dec 9.3 06:27:24 10° WSW 06:37:34 79° SSE 06:47:31 10° E visible
04 Dec 11.1 02:08:51 12° ESE 02:08:51 12° ESE 02:12:11 10° E visible
04 Dec 9.9 04:07:13 30° S 04:11:28 42° SE 04:20:40 10° ENE visible
04 Dec 9.3 06:05:44 10° WSW 06:15:53 78° SSE 06:25:52 10° E visible
05 Dec 11.2 01:49:03 11° ESE 01:49:03 11° ESE 01:49:50 10° ESE visible
05 Dec 9.9 03:47:24 36° S 03:49:51 41° SE 03:58:58 10° ENE visible
05 Dec 9.2 05:45:44 17° WSW 05:54:12 77° SSE 06:04:12 10° E visible
